Regional Weather Roundup
Issued by NWS Midland/Odessa, TX

Skip options and go directly to product.
Home | Oldest Version | Next Version | Current Version | All | Text Only | Save Text | Print | Product List | Glossary On

Skip product version selection by date and time.   
471
ASUS44 KMAF 281201
RWRMAF
MIDLAND AREA WEATHER ROUNDUP
NATIONAL WEATHER SERVICE MIDLAND TX
700 AM CDT SAT MAR 28 2015

...IN SOUTHWEST TEXAS AND SOUTHEAST NEW MEXICO...

CITY           SKY/WX    TMP DP  RH WIND       PRES   REMARKS
ALPINE         CLEAR     55  28  34 SW9       30.24S
ANDREWS        FAIR      50  35  55 SW10      30.07S
ARTESIA        CLEAR     54  23  30 S5        30.08R
BIG SPRING     CLEAR     56  34  43 S13       30.08R
CARLSBAD       CLEAR     44  33  65 N6        30.05S
DRYDEN           N/A     48  40  73 N6        30.09S
FORT STOCKTON  CLEAR     55  33  43 SW15      30.08S
GUAD PASS      CLEAR     54  20  26 SW14      30.20R
HOBBS          CLEAR     45  32  61 SW6       30.09R
MARFA          CLEAR     36  28  75 NW6       30.22S WCI  31
MIDLAND AIRPK  CLEAR     56  36  46 SW8       30.07R
MIDLAND INTL   CLEAR     53  37  54 SW10      30.06S
ODESSA         CLEAR     50  35  56 S8        30.07S
PECOS          CLEAR     44  37  76 CALM      30.07R
PRESIDIO       FAIR      56  32  41 N6        30.13S
SEMINOLE       CLEAR     46  35  67 W10       30.07S
SNYDER         CLEAR     52  35  52 S9        30.06S
WINK           CLEAR     46  36  68 CALM      30.06R
$$
...OTHER STATIONS IN TEXAS...

CITY           SKY/WX    TMP DP  RH WIND       PRES   REMARKS
ABILENE        CLEAR     56  36  47 S10       30.07S
AMARILLO       CLEAR     40  34  79 SW9       30.05S WCI  34
AUSTIN         PTCLDY    43  42  97 W3        30.12F
BROWNSVILLE    CLEAR     53  52  96 S3        30.18R
CORPUS CHRISTI CLEAR     55  47  74 SW13      30.16R
DALLAS FTW     PTCLDY    45  38  76 S7        30.08S
DEL RIO        CLEAR     52  40  63 E8        30.10R
EL PASO        CLEAR     55  21  26 S5        30.14R
HOUSTON INT    PTCLDY    49  44  83 CALM      30.16R
LUBBOCK        PTCLDY    44  34  67 SE7       30.03S
SAN ANGELO     CLEAR     57  36  45 SW15      30.07S
SAN ANTONIO    CLEAR     57  39  51 W7        30.14R
WACO           CLEAR     46  40  79 S7        30.11S
WICHITA FALLS  NOT AVBL
$$
...OTHER LOCATIONS IN NEW MEXICO...

CITY           SKY/WX    TMP DP  RH WIND       PRES   REMARKS
ALAMAGORDO     CLEAR     50  16  25 NW3       30.16R HAZE
ALBUQUERQUE    PTCLDY    49  19  30 E3        30.21R
CANNON AFB     NOT AVBL
CLOVIS         CLEAR     39  30  70 W8        30.06S WCI  34
HOLLOMAN AFB   NOT AVBL
ROSWELL        CLEAR     44  31  60 NE5       30.08R
RUIDOSO        CLEAR     50  14  23 W12       30.27R
SANTA FE       CLEAR     36  20  52 N7        30.23R WCI  30
TRUTH OR CONSE CLEAR     55  13  18 N7        30.18R
TUCUMCARI      CLEAR     42  29  59 W9        30.08R WCI  37
$$

USA.gov is the U.S. government's official web portal to all federal, state and local government web resources and services.